<< Return to Weather Page
Sitka, AK
on Monday, May 7, 2012

Monday
Previous Day Next Day
Daily Summary
 ActualAverageRecord
Temperature
Mean Temperature - -  
Max Temperature 44 °F 52 °F 75 °F (1981)
Min Temperature 39 °F 40 °F 33 °F (1962)
Degree Days
Heating Degree Days 24    
Moisture
Dew Point 41 °F   
Average Humidity 95    
Maximum Humidity 100    
Minimum Humidity 87    
Precipitation
Precipitation 0.70 in - - ()
Wind
Wind Speed 7 mph   
Max Wind Speed 13 mph   
Max Gust Speed 17 mph   
Visibility 7 miles   
Events Rain   
Averages and records for this station are not official NWS values.
Key: T is trace of precipitation, MM is missing value
Source: NWS Daily Summary
Seasonal Weather Averages
Time(AKDT)TemperatureDew PointHumidity Pressure Visibility Wind DirectionWind SpeedGust SpeedPrecipitationEvents Conditions
12:53 AM 43.0 °F 42.1 °F 97% 29.94 in 10.0 miles SSW 9.2 mph - N/A   Overcast
1:53 AM 43.0 °F 41.0 °F 93% 29.93 in 7.0 miles SSW 10.4 mph - 0.00 in Rain Light Rain
2:22 AM 42.8 °F 42.8 °F 100% 29.92 in 6.0 miles South 8.1 mph - 0.03 in Rain Light Rain
2:40 AM 42.8 °F 42.8 °F 100% 29.92 in 5.0 miles South 8.1 mph - 0.03 in Rain Light Rain
2:53 AM 43.0 °F 42.1 °F 97% 29.91 in 4.0 miles South 6.9 mph - 0.04 in Rain Light Rain
3:21 AM 42.8 °F 42.8 °F 100% 29.90 in 7.0 miles South 3.5 mph - 0.01 in Rain Light Rain
3:28 AM 42.8 °F 42.8 °F 100% 29.90 in 9.0 miles South 3.5 mph - 0.01 in   Overcast
3:53 AM 43.0 °F 42.1 °F 97% 29.91 in 10.0 miles SSW 4.6 mph - 0.01 in   Overcast
4:24 AM 42.8 °F 42.8 °F 100% 29.90 in 9.0 miles SSW 4.6 mph - 0.00 in   Overcast
4:53 AM 43.0 °F 42.1 °F 97% 29.89 in 8.0 miles SSW 9.2 mph - 0.01 in   Overcast
5:00 AM 42.8 °F 42.8 °F 100% 29.89 in 7.0 miles SSW 8.1 mph - 0.00 in Rain Light Rain
5:44 AM 42.8 °F 42.8 °F 100% 29.88 in 6.0 miles SSW 8.1 mph - 0.02 in Rain Light Rain
5:53 AM 43.0 °F 42.1 °F 97% 29.88 in 5.0 miles SSW 6.9 mph - 0.02 in Rain Light Rain
5:55 AM 42.8 °F 42.8 °F 100% 29.88 in 5.0 miles SSW 8.1 mph - 0.00 in Rain Light Rain
6:15 AM 42.8 °F 42.8 °F 100% 29.88 in 5.0 miles Calm Calm - 0.01 in Rain Light Rain
6:35 AM 42.8 °F 42.8 °F 100% 29.87 in 6.0 miles Calm Calm - 0.01 in Rain Light Rain
6:53 AM 43.0 °F 42.1 °F 97% 29.87 in 7.0 miles Calm Calm - 0.01 in   Overcast
6:55 AM 42.8 °F 42.8 °F 100% 29.87 in 9.0 miles Calm Calm - N/A   Overcast
7:15 AM 42.8 °F 42.8 °F 100% 29.86 in 7.0 miles Calm Calm - 0.00 in Rain Light Rain
7:32 AM 42.8 °F 42.8 °F 100% 29.85 in 8.0 miles Calm Calm - 0.01 in Rain Light Rain
7:53 AM 44.1 °F 42.1 °F 93% 29.85 in 9.0 miles Calm Calm - 0.01 in   Overcast
8:53 AM 44.1 °F 42.1 °F 93% 29.83 in 9.0 miles Calm Calm - 0.00 in Rain Light Rain
9:24 AM 44.6 °F 42.8 °F 93% 29.83 in 9.0 miles North - - 0.00 in Rain Light Rain
9:27 AM 44.6 °F 42.8 °F 93% 29.83 in 8.0 miles North - - 0.00 in Rain Light Rain
9:37 AM 44.6 °F 42.8 °F 93% 29.83 in 7.0 miles North - - 0.01 in Rain Light Rain
9:53 AM 44.1 °F 42.1 °F 93% 29.83 in 5.0 miles North - - 0.01 in Rain Light Rain
10:35 AM 44.6 °F 42.8 °F 93% 29.81 in 6.0 miles South 6.9 mph - 0.00 in Rain Light Rain
10:44 AM 44.6 °F 42.8 °F 93% 29.80 in 7.0 miles SSW 8.1 mph - 0.00 in Rain Light Rain
10:53 AM 44.1 °F 43.0 °F 96% 29.80 in 7.0 miles SSW 6.9 mph - 0.00 in Rain Light Rain
11:22 AM 44.6 °F 42.8 °F 93% 29.78 in 6.0 miles SSW 5.8 mph - 0.01 in Rain Light Rain
11:53 AM 44.1 °F 42.1 °F 93% 29.76 in 6.0 miles SW 8.1 mph - 0.01 in Rain Light Rain
12:03 PM 44.6 °F 42.8 °F 93% 29.76 in 6.0 miles WSW 6.9 mph - 0.00 in Rain Light Rain
12:53 PM 43.0 °F 43.0 °F 100% 29.75 in 4.0 miles WSW 6.9 mph - 0.05 in Rain Light Rain
1:15 PM 42.8 °F 42.8 °F 100% 29.74 in 5.0 miles WSW 4.6 mph - 0.03 in Rain Light Rain
1:53 PM 43.0 °F 43.0 °F 100% 29.70 in 4.0 miles NW 5.8 mph - 0.09 in Rain Rain
2:53 PM 44.1 °F 43.0 °F 96% 29.67 in 4.0 miles WNW 5.8 mph - 0.04 in Rain Rain
3:22 PM 44.6 °F 42.8 °F 93% 29.63 in 4.0 miles NNW 6.9 mph - 0.05 in Rain Rain
3:53 PM 43.0 °F 42.1 °F 97% 29.61 in 6.0 miles NW 9.2 mph - 0.08 in Rain Light Rain
4:13 PM 42.8 °F 42.8 °F 100% 29.60 in 6.0 miles West 10.4 mph - 0.02 in Rain Light Rain
4:25 PM 42.8 °F 42.8 °F 100% 29.59 in 5.0 miles West 8.1 mph - 0.04 in Rain Light Rain
4:27 PM 42.8 °F 42.8 °F 100% 29.59 in 6.0 miles West 9.2 mph - 0.04 in Rain Light Rain
4:53 PM 43.0 °F 42.1 °F 97% 29.58 in 6.0 miles West 9.2 mph - 0.07 in Rain Light Rain
5:01 PM 42.8 °F 41.0 °F 93% 29.57 in 6.0 miles West 9.2 mph - 0.01 in Rain Light Rain
5:26 PM 42.8 °F 39.2 °F 87% 29.57 in 6.0 miles WSW 9.2 mph - 0.03 in Rain Light Rain
5:48 PM 42.8 °F 39.2 °F 87% 29.56 in 6.0 miles WSW 10.4 mph - 0.06 in Rain Light Rain
5:53 PM 42.1 °F 39.9 °F 92% 29.56 in 6.0 miles WSW 10.4 mph - 0.07 in Rain Light Rain
6:53 PM 39.9 °F 37.0 °F 89% 29.56 in 6.0 miles West 8.1 mph - 0.09 in Rain Light Rain
7:36 PM 39.2 °F 35.6 °F 87% 29.58 in 8.0 miles SW 11.5 mph - 0.04 in Rain Light Rain
7:53 PM 39.0 °F 37.0 °F 93% 29.59 in 8.0 miles South 9.2 mph - 0.06 in Rain Light Rain
8:25 PM 39.2 °F 37.4 °F 93% 29.60 in 10.0 miles South 9.2 mph - 0.01 in Rain Light Rain
8:36 PM 39.2 °F 37.4 °F 93% 29.60 in 10.0 miles SSW 12.7 mph 17.3 mph 0.01 in Rain Light Rain
8:53 PM 39.0 °F 37.0 °F 93% 29.61 in 7.0 miles South 11.5 mph - 0.01 in Rain Light Rain
9:53 PM 39.0 °F 37.0 °F 93% 29.64 in 10.0 miles ESE 5.8 mph - 0.01 in Rain Light Rain
10:53 PM 39.9 °F 37.0 °F 89% 29.66 in 10.0 miles ESE 5.8 mph - 0.01 in   Overcast
11:11 PM 39.2 °F 37.4 °F 93% 29.66 in 10.0 miles East 6.9 mph - N/A   Overcast
11:20 PM 39.2 °F 37.4 °F 93% 29.66 in 9.0 miles East 6.9 mph - 0.00 in Rain Light Rain
11:53 PM 39.9 °F 37.0 °F 89% 29.67 in 10.0 miles East 11.5 mph - 0.00 in   Overcast

Astronomy

Sunrise: 04:57 AM (AKDT) Moon Rise: 11:40 PM (AKDT) 5 / 7
Sunset: 08:59 PM (AKDT) Moon Set: 05:51 AM (AKDT) 5 / 7
Moon Phase
May. 07 May. 12 May. 20 May. 28 Jun. 04

Powered by the Weather Underground, Inc.